Weather History for KTYS - September, 2013

Change the Weather History Date:

Friday, September 20, 2013

  Actual Average Record
Temperature  
Mean Temperature 74 °F 70 °F  
Max Temperature 85 °F 80 °F 97 °F (1925)
Min Temperature 62 °F 59 °F 43 °F (1889)
Degree Days  
Heating Degree Days 0 1  
Month to date heating degree days 1 5  
Since 1 July heating degree days 1 5  
Cooling Degree Days 9 5  
Month to date cooling degree days 178 165  
Year to date cooling degree days 1365 1446  
Growing Degree Days 23 (Base 50)    
Moisture  
Dew Point 63 °F    
Average Humidity 74    
Maximum Humidity 100    
Minimum Humidity 47    
Precipitation  
Precipitation T in 0.11 in 1.75 in (1932)
Month to date precipitation 1.62 2.14  
Year to date precipitation 53.00 35.74  
Snow  
Snow 0.00 in 0.00 in - ()
Month to date snowfall 0.0 0.0  
Since 1 July snowfall 0.0 0.0  
Since 1 September snowfall 0.0 0.0  
Snow Depth 0.00 in    
Sea Level Pressure  
Sea Level Pressure 29.99 in    
Wind  
Wind Speed 4 mph (SW)    
Max Wind Speed 14 mph    
Max Gust Speed 21 mph    
Visibility 9 miles    
Events      
T = Trace of Precipitation, MM = Missing Value Source: NWS Daily Summary

Daily Weather History Graph

Daily Weather History Graph

Search for Another Location

Airport or City:

Trip Planner

Search our weather history database for the weather conditions in past years. The results will help you decide how hot, cold, wet, or windy it might be!

Date:

Astronomy

Sep. 20, 2013 Rise Set
Actual Time 7:22 AM EDT 7:35 PM EDT
Civil Twilight 6:56 AM EDT 8:00 PM EDT
Nautical Twilight 6:27 AM EDT 8:30 PM EDT
Astronomical Twilight 5:56 AM EDT 9:00 PM EDT
Moon 8:13 PM EDT (9/20) 8:32 AM EDT (9/20)
Length of Visible Light 13h 03m
Length of Day
12h 12m
Full, 98% of the Moon is Illuminated
Sep 20
Full
Sep 26
Last Quarter
Oct 4
New
Oct 11
First Quarter
Oct 18
Full

Hourly Weather History & Observations

Time (EDT) Temp. Heat Index Dew Point Humidity Pressure Visibility Wind Dir Wind Speed Gust Speed Precip Events Conditions
12:53 AM 68.0 °F - 64.0 °F 87% 30.06 in 10.0 mi SSW 3.5 mph - N/A   Clear
1:53 AM 66.9 °F - 63.0 °F 87% 30.06 in 10.0 mi SSW 3.5 mph - N/A   Clear
2:53 AM 66.9 °F - 64.0 °F 90% 30.05 in 9.0 mi Calm Calm - N/A   Scattered Clouds
3:53 AM 66.0 °F - 63.0 °F 90% 30.05 in 8.0 mi Calm Calm - N/A   Clear
4:53 AM 64.9 °F - 63.0 °F 93% 30.05 in 7.0 mi Calm Calm - N/A   Scattered Clouds
5:53 AM 64.9 °F - 63.0 °F 93% 30.05 in 7.0 mi Calm Calm - N/A   Scattered Clouds
6:53 AM 63.0 °F - 62.1 °F 97% 30.05 in 5.0 mi Calm Calm - N/A   Scattered Clouds
7:53 AM 64.0 °F - 62.1 °F 93% 30.06 in 4.0 mi Calm Calm - N/A   Scattered Clouds
8:53 AM 66.9 °F - 63.0 °F 87% 30.06 in 7.0 mi Calm Calm - N/A   Partly Cloudy
9:53 AM 72.0 °F - 64.0 °F 76% 30.06 in 9.0 mi Calm Calm - N/A   Mostly Cloudy
10:53 AM 75.9 °F - 64.9 °F 69% 30.05 in 10.0 mi Variable 5.8 mph - N/A   Mostly Cloudy
11:53 AM 80.1 °F 81.5 °F 63.0 °F 56% 30.04 in 10.0 mi WSW 11.5 mph - N/A   Mostly Cloudy
12:53 PM 81.0 °F 82.2 °F 63.0 °F 54% 30.02 in 10.0 mi WSW 10.4 mph 17.3 mph N/A   Mostly Cloudy
1:53 PM 82.0 °F 83.0 °F 62.1 °F 51% 30.00 in 10.0 mi WSW 11.5 mph 16.1 mph N/A   Mostly Cloudy
2:53 PM 82.0 °F 82.7 °F 61.0 °F 49% 29.96 in 10.0 mi SW 8.1 mph - N/A   Mostly Cloudy
3:53 PM 82.9 °F 83.2 °F 60.1 °F 46% 29.93 in 10.0 mi West 5.8 mph - N/A   Mostly Cloudy
4:53 PM 82.9 °F 83.2 °F 60.1 °F 46% 29.90 in 10.0 mi SW 9.2 mph - N/A   Mostly Cloudy
5:53 PM 82.9 °F 83.3 °F 61.0 °F 47% 29.89 in 10.0 mi Variable 6.9 mph - N/A   Mostly Cloudy
6:53 PM 80.1 °F 81.1 °F 61.0 °F 52% 29.89 in 10.0 mi WSW 5.8 mph - N/A   Mostly Cloudy
7:53 PM 77.0 °F - 62.1 °F 60% 29.88 in 10.0 mi SSW 4.6 mph - N/A   Overcast
8:53 PM 73.9 °F - 64.0 °F 71% 29.88 in 10.0 mi East 4.6 mph - N/A   Overcast
9:53 PM 73.0 °F - 64.9 °F 76% 29.88 in 10.0 mi Calm Calm - N/A   Overcast
10:53 PM 71.1 °F - 64.9 °F 81% 29.88 in 10.0 mi Calm Calm - N/A   Overcast
11:53 PM 70.0 °F - 64.0 °F 81% 29.87 in 10.0 mi Calm Calm - N/A   Overcast